Lakeland Region, FL

8:46 AM EDT on June 25, 2017 (GMT -0400)
Lakeland Linder Regional

Weather History for KLAL - February, 2014

Change the Weather History Date:

Friday, February 14, 2014

  Actual Average Record
Temperature  
Mean Temperature 50 °F -  
Max Temperature 66 °F 71 °F 87 °F (1997)
Min Temperature 35 °F 52 °F 30 °F (2006)
Degree Days  
Heating Degree Days 14    
Moisture  
Dew Point 39 °F    
Average Humidity 81    
Maximum Humidity 100    
Minimum Humidity 28    
Precipitation  
Precipitation 0.00 in - - ()
Sea Level Pressure  
Sea Level Pressure 30.01 in    
Wind  
Wind Speed 1 mph (SW)    
Max Wind Speed 9 mph    
Max Gust Speed -    
Visibility 8 miles    
Events Fog    
Averages and records for this station are not official NWS values.
T = Trace of Precipitation, MM = Missing Value Source: NWS Daily Summary

Daily Weather History Graph

Daily Weather History Graph

Search for Another Location

Airport or City:

Trip Planner

Search our weather history database for the weather conditions in past years. The results will help you decide how hot, cold, wet, or windy it might be!

Date:

Astronomy

Feb. 14, 2014 Rise Set
Actual Time 7:06 AM EST 6:18 PM EST
Civil Twilight 6:42 AM EST 6:42 PM EST
Nautical Twilight 6:14 AM EST 7:10 PM EST
Astronomical Twilight 5:47 AM EST 7:37 PM EST
Moon 6:16 PM EST (2/14) 6:35 AM EST (2/14)
Length of Visible Light 12h 00m
Length of Day
11h 11m
Full, 100% of the Moon is Illuminated
Feb 14
Full
Feb 14
Full
Feb 22
Last Quarter
Mar 1
New
Mar 8
First Quarter

Hourly Weather History & Observations

Time (EST) Temp. Windchill Dew Point Humidity Pressure Visibility Wind Dir Wind Speed Gust Speed Precip Events Conditions
12:15 AM 42.8 °F - 41.0 °F 93% 30.01 in 10.0 mi Calm Calm - N/A   Clear
12:35 AM 41.0 °F - 41.0 °F 100% 30.01 in 10.0 mi Calm Calm - N/A   Clear
12:55 AM 41.0 °F - 41.0 °F 100% 30.01 in 10.0 mi Calm Calm - N/A   Clear
1:15 AM 41.0 °F - 41.0 °F 100% 30.00 in 7.0 mi Calm Calm - N/A   Clear
1:35 AM 41.0 °F - 39.2 °F 93% 30.00 in 10.0 mi Calm Calm - N/A   Clear
1:55 AM 39.2 °F - 37.4 °F 93% 29.99 in 10.0 mi Calm Calm - N/A   Clear
2:15 AM 39.2 °F - 37.4 °F 93% 29.99 in 10.0 mi Calm Calm - N/A   Clear
2:35 AM 41.0 °F - 39.2 °F 93% 29.99 in 10.0 mi Calm Calm - N/A   Clear
2:55 AM 37.4 °F - 37.4 °F 100% 30.00 in 7.0 mi Calm Calm - N/A   Clear
3:15 AM 37.4 °F - 37.4 °F 100% 30.00 in 1.8 mi Calm Calm - N/A   Scattered Clouds
3:35 AM 35.6 °F - 35.6 °F 100% 30.00 in 0.2 mi Calm Calm - N/A Fog Fog
3:55 AM 37.4 °F - 37.4 °F 100% 30.00 in 0.2 mi Calm Calm - N/A Fog Fog
4:15 AM 35.6 °F - 35.6 °F 100% 30.00 in 0.2 mi Calm Calm - N/A Fog Fog
4:35 AM 37.4 °F - 37.4 °F 100% 30.01 in 0.2 mi Calm Calm - N/A Fog Fog
4:55 AM 35.6 °F - 35.6 °F 100% 30.01 in 0.2 mi Calm Calm - N/A Fog Fog
5:15 AM 35.6 °F - 35.6 °F 100% 30.01 in 1.5 mi Calm Calm - N/A   Overcast
5:35 AM 35.6 °F - 35.6 °F 100% 30.03 in 0.5 mi Calm Calm - N/A Fog Fog
5:56 AM 37.4 °F - 37.4 °F 100% 30.03 in 4.0 mi Calm Calm - N/A   Scattered Clouds
6:38 AM 35.6 °F - 35.6 °F 100% 30.05 in 0.5 mi Calm Calm - N/A Fog Fog
6:58 AM 35.6 °F - 35.6 °F 100% 30.05 in 3.0 mi Calm Calm - N/A   Scattered Clouds
7:50 AM 39.2 °F - 39.2 °F 100% 30.06 in 5.0 mi Calm Calm - N/A   Clear
8:50 AM 46.4 °F - 46.4 °F 100% 30.09 in 15.0 mi Calm Calm - N/A   Clear
9:50 AM 53.6 °F - 42.8 °F 67% 30.10 in 15.0 mi Calm Calm - N/A   Clear
10:55 AM 57.2 °F - 33.8 °F 41% 30.10 in 20.0 mi East 3.5 mph - N/A   Clear
11:50 AM 59.0 °F - 30.2 °F 34% 30.08 in 15.0 mi SW 3.5 mph - N/A   Clear
12:50 PM 59.0 °F - 32.0 °F 36% 30.05 in 15.0 mi Calm Calm - N/A   Clear
1:50 PM 64.4 °F - 33.8 °F 32% 30.01 in 10.0 mi SSW 5.8 mph - N/A   Clear
2:50 PM 66.2 °F - 32.0 °F 28% 29.99 in 7.0 mi WSW 8.1 mph - N/A   Clear
3:45 PM 66.2 °F - 32.0 °F 28% 29.98 in 7.0 mi SW 9.2 mph - N/A   Clear
4:50 PM 66.2 °F - 33.8 °F 30% 29.96 in 7.0 mi SW 6.9 mph - N/A   Clear
5:45 PM 62.6 °F - 42.8 °F 48% 29.98 in 10.0 mi West 9.2 mph - N/A   Clear
6:45 PM 57.2 °F - 42.8 °F 59% 30.00 in 10.0 mi West 6.9 mph - N/A   Clear
7:45 PM 55.4 °F - 44.6 °F 67% 30.01 in 10.0 mi West 4.6 mph - N/A   Clear
8:50 PM 53.6 °F - 44.6 °F 72% 30.02 in 10.0 mi Calm Calm - N/A   Clear
9:45 PM 48.2 °F - 44.6 °F 87% 30.02 in 10.0 mi SW 4.6 mph - N/A   Clear
9:55 PM 48.2 °F - 44.6 °F 87% 30.02 in 10.0 mi Calm Calm - N/A   Clear
10:15 PM 50.0 °F - 44.6 °F 82% 30.01 in 10.0 mi SSW 3.5 mph - N/A   Clear
10:35 PM 50.0 °F - 44.6 °F 82% 30.01 in 10.0 mi SSW 3.5 mph - N/A   Clear
10:55 PM 46.4 °F 45.2 °F 44.6 °F 93% 30.00 in 10.0 mi South 3.5 mph - N/A   Clear
11:15 PM 46.4 °F 45.2 °F 44.6 °F 93% 29.99 in 10.0 mi SSW 3.5 mph - N/A   Clear
11:35 PM 46.4 °F 44.3 °F 44.6 °F 93% 29.97 in 10.0 mi South 4.6 mph - N/A   Clear
11:55 PM 46.4 °F 45.2 °F 44.6 °F 93% 29.97 in 10.0 mi South 3.5 mph - N/A   Clear